Hilger, MT (59451)

5:58 AM MST on December 18, 2014 (GMT -0700)
3rd Ave S Lewistown | Change Station
CLOSE
Current Station
Personal Weather Station
Location: Lewistown, MT
Elevation: 3927 ft
Nearby Weather Stations

Elev 3927 ft 47.06 °N, 109.42 °W | Updated 45 minutes ago

Partly Cloudy
Partly Cloudy
15.5 °F
Feels Like 15 °F
N
0.0
Wind Variable Wind from SE
Gusts 6.0 mph

Today
High -- | Low -- °F
--% Chance of Precip.
Yesterday
High -- | Low -- °F
Precip. -- in
8:00 AM 4:28 PM
Waning Crescent, 14% visible
Pressure 30.01 in
Visibility 10.0 miles
Clouds Clear
Windchill 15 °F
Dew Point 13 °F
Humidity 91%
Rainfall 0.00 in
Snow Depth Not available.
UV out of 12
Pollen .10 out of 12
Air Quality Not available.
Flu Activity Not available.
METAR KLWT 181154Z AUTO 12005KT 10SM CLR M08/M09 A2990 RMK AO2 SLP162 70001 T10781094 11011 21083 55000

More Conditions Fewer Conditions

Pressure 30.01 in
Visibility 10.0 miles
Clouds Clear
Windchill 15 °F
Dew Point 13 °F
Humidity 91%
Rainfall 0.00 in
Snow Depth Not available.
UV out of 12
Pollen .10 out of 12
Air Quality Not available.
Flu Activity Not available.
METAR KLWT 181154Z AUTO 12005KT 10SM CLR M08/M09 A2990 RMK AO2 SLP162 70001 T10781094 11011 21083 55000

More Conditions Fewer Conditions

10-Day Weather Forecast

Almanac

Astronomy

Dec. 18, 2014 Rise Set
Actual Time
Civil Twilight
Nautical Twilight
Astronomical Twilight
Moon
Length of Visible Light
Length of Day
Tomorrow will be .
, % of the Moon is Illuminated

Today's Extremes

State Highs State Lows

Community

WunderPhotos

Upload Photos

1,778,923 photos uploaded!

WunderBlogs® & News

Nearby

Air Quality

  Air Quality AQ Index Pollutant
Not available.

Snow Depth

Station Depth Elevation

Earthquake Activity

City Distance Mag. Time & Date
Minimum magnitude displayed is 2.5.

Coastal Water Temperatures

Place Temperature

Nearby Weather Stations